Weather History for Columbia, MO

Change the Weather History Date:

Monday, February 25, 2013

  Actual Average Record
Temperature  
Mean Temperature 36 °F 38 °F  
Max Temperature 44 °F 48 °F 74 °F (1981)
Min Temperature 28 °F 28 °F -1 °F (2003)
Degree Days  
Heating Degree Days 29 27  
Month to date heating degree days 756 777  
Since 1 July heating degree days 3484 3866  
Cooling Degree Days 0 0  
Month to date cooling degree days 0 0  
Year to date cooling degree days 1 0  
Moisture  
Dew Point 28 °F    
Average Humidity 73    
Maximum Humidity 96    
Minimum Humidity 49    
Precipitation  
Precipitation 0.46 in 0.09 in 1.45 in (1899)
Month to date precipitation 2.89 1.99  
Year to date precipitation 5.27 3.91  
Snow  
Snow 2.00 in 0.10 in 9.80 in (1993)
Month to date snowfall 10.2 4.3  
Since 1 July snowfall 14.4 15.7  
Snow Depth 5.00 in    
Sea Level Pressure  
Sea Level Pressure 29.84 in    
Wind  
Wind Speed 16 mph (ENE)    
Max Wind Speed 29 mph    
Max Gust Speed 38 mph    
Visibility 7 miles    
Events Rain , Snow    
T = Trace of Precipitation, MM = Missing Value Source: NWS Daily Summary

Daily Weather History Graph

Daily Weather History Graph

Search for Another Location

Airport:

Trip Planner

Search our weather history database for the weather conditions in past years. The results will help you decide how hot, cold, wet, or windy it might be!

Date:

Astronomy

Feb. 25, 2013 Rise Set
Actual Time 6:46 AM CST 5:57 PM CST
Civil Twilight 6:19 AM CST 6:24 PM CST
Nautical Twilight 5:48 AM CST 6:55 PM CST
Astronomical Twilight 5:18 AM CST 7:26 PM CST
Moon 6:10 PM CST 6:17 AM CST
Length of Visible Light 12h 04m
Length of Day
11h 11m
Full, 100% of the Moon is Illuminated
Feb 25
Full
Feb 25
Full
Mar 4
Last Quarter
Mar 11
New
Mar 19
First Quarter

Hourly Weather History & Observations

Time (CST) Temp. Windchill Dew Point Humidity Pressure Visibility Wind Dir Wind Speed Gust Speed Precip Events Conditions
12:54 AM 32.0 °F 25.6 °F 23.0 °F 69% 30.04 in 10.0 mi East 6.9 mph - N/A   Clear
1:54 AM 30.0 °F 21.1 °F 21.9 °F 72% 30.02 in 10.0 mi ENE 10.4 mph - N/A   Clear
2:54 AM 30.0 °F 22.4 °F 23.0 °F 75% 30.01 in 10.0 mi East 8.1 mph - N/A   Clear
3:54 AM 28.9 °F 19.8 °F 21.9 °F 75% 30.01 in 10.0 mi East 10.4 mph - N/A   Clear
4:54 AM 28.9 °F 19.8 °F 21.9 °F 75% 29.99 in 10.0 mi East 10.4 mph - N/A   Clear
5:54 AM 28.9 °F 19.8 °F 23.0 °F 78% 29.99 in 10.0 mi East 10.4 mph - N/A   Clear
6:54 AM 28.0 °F 19.3 °F 21.9 °F 78% 29.99 in 8.0 mi ENE 9.2 mph - N/A   Clear
7:54 AM 30.0 °F 21.1 °F 23.0 °F 75% 29.99 in 9.0 mi ENE 10.4 mph - N/A   Clear
8:54 AM 34.0 °F 25.5 °F 24.1 °F 67% 29.99 in 10.0 mi East 11.5 mph - N/A   Clear
9:54 AM 37.0 °F 29.3 °F 25.0 °F 62% 29.98 in 10.0 mi East 11.5 mph - N/A   Clear
10:54 AM 39.9 °F 32.5 °F 24.1 °F 53% 29.95 in 10.0 mi East 12.7 mph - N/A   Clear
11:54 AM 43.0 °F 34.2 °F 24.1 °F 47% 29.92 in 10.0 mi East 20.7 mph 25.3 mph N/A   Clear
12:54 PM 42.1 °F 35.7 °F 26.1 °F 53% 29.87 in 10.0 mi ENE 11.5 mph - N/A   Clear
1:54 PM 43.0 °F 35.1 °F 25.0 °F 49% 29.86 in 10.0 mi ENE 17.3 mph - N/A   Partly Cloudy
2:54 PM 43.0 °F 34.5 °F 25.0 °F 49% 29.84 in 10.0 mi ENE 19.6 mph 27.6 mph N/A   Scattered Clouds
3:54 PM 39.9 °F 31.1 °F 27.0 °F 60% 29.84 in 10.0 mi NE 17.3 mph 25.3 mph N/A   Overcast
4:54 PM 39.0 °F 28.8 °F 27.0 °F 62% 29.81 in 10.0 mi NE 21.9 mph 32.2 mph N/A   Overcast
5:54 PM 37.9 °F 28.2 °F 28.0 °F 68% 29.82 in 10.0 mi ENE 18.4 mph 28.8 mph N/A   Overcast
6:54 PM 37.9 °F 27.1 °F 30.0 °F 73% 29.82 in 10.0 mi ENE 23.0 mph 28.8 mph 0.00 in Rain Light Rain
7:03 PM 37.0 °F 25.4 °F 30.9 °F 79% 29.78 in 6.0 mi NE 25.3 mph 31.1 mph 0.00 in Rain Rain
7:28 PM 37.0 °F 25.9 °F 30.9 °F 79% 29.76 in 10.0 mi ENE 23.0 mph 32.2 mph 0.00 in   Overcast
7:54 PM 37.0 °F 24.9 °F 30.9 °F 79% 29.77 in 10.0 mi ENE 27.6 mph 38.0 mph 0.00 in Snow Light Snow
8:11 PM 36.0 °F 24.2 °F 32.0 °F 86% 29.75 in 4.0 mi ENE 24.2 mph 31.1 mph 0.02 in Snow Light Snow
8:14 PM 35.1 °F 23.5 °F 32.0 °F 89% 29.76 in 2.5 mi ENE 21.9 mph 31.1 mph 0.02 in Snow Light Snow
8:20 PM 34.0 °F 23.4 °F 32.0 °F 92% 29.76 in 1.5 mi ENE 17.3 mph 31.1 mph 0.05 in Snow Light Snow
8:34 PM 34.0 °F 23.0 °F 32.0 °F 92% 29.75 in 1.2 mi ENE 18.4 mph - 0.09 in Snow Light Snow
8:44 PM 34.0 °F 23.4 °F 32.0 °F 92% 29.74 in 1.5 mi ENE 17.3 mph - 0.13 in Snow Light Snow
8:54 PM 34.0 °F 22.1 °F 32.0 °F 92% 29.75 in 1.8 mi ENE 21.9 mph 27.6 mph 0.18 in Snow Light Snow
9:02 PM 34.0 °F 22.4 °F 32.0 °F 92% 29.73 in 2.5 mi ENE 20.7 mph 28.8 mph 0.01 in Snow Light Snow
9:05 PM 34.0 °F 21.8 °F 32.0 °F 92% 29.73 in 3.0 mi ENE 23.0 mph 28.8 mph 0.01 in Snow Light Snow
9:45 PM 34.0 °F 23.0 °F 32.0 °F 92% 29.72 in 2.5 mi ENE 18.4 mph 27.6 mph 0.06 in Snow Light Snow
9:54 PM 34.0 °F 23.4 °F 32.0 °F 92% 29.73 in 2.5 mi NE 17.3 mph - 0.07 in Snow Light Snow
10:06 PM 34.0 °F 23.8 °F 32.0 °F 92% 29.70 in 1.8 mi NE 16.1 mph - 0.01 in Snow Light Snow
10:54 PM 34.0 °F 22.4 °F 32.0 °F 92% 29.67 in 1.5 mi NE 20.7 mph 29.9 mph 0.10 in Snow Light Snow
11:43 PM 34.0 °F 22.1 °F 32.0 °F 92% 29.61 in 0.8 mi NE 21.9 mph - 0.08 in Snow Light Snow
11:54 PM 34.0 °F 21.5 °F 32.0 °F 92% 29.61 in 0.8 mi NE 24.2 mph 31.1 mph 0.10 in Snow Light Snow